Time,TemperatureF,DewpointF,PressureIn,WindDirection,WindDirectionDegrees,WindSpeedMPH,WindSpeedGustMPH,Humidity,HourlyPrecipIn,Conditions,Clouds,dailyrainin,SoftwareType,DateUTC
2013-07-08 00:01:00,75.9,68.9,29.93,SW,222,2.2,2.7,79,0.00,,,0.00,VWS V14.00,2013-07-08 04:01:00,
2013-07-08 00:03:00,75.9,68.9,29.93,SW,222,0.0,0.0,79,0.00,,,0.00,VWS V14.00,2013-07-08 04:03:00,
2013-07-08 00:04:00,75.9,68.9,29.93,SW,222,0.0,0.0,79,0.00,,,0.00,VWS V14.00,2013-07-08 04:04:00,
2013-07-08 00:07:00,76.1,69.1,29.93,SSW,208,2.2,2.2,79,0.00,,,0.00,VWS V14.00,2013-07-08 04:07:00,
2013-07-08 00:12:00,76.1,69.1,29.93,SSW,208,0.0,0.0,79,0.00,,,0.00,VWS V14.00,2013-07-08 04:12:00,
2013-07-08 00:18:00,76.1,69.1,29.93,SSW,200,2.7,2.7,79,0.00,,,0.00,VWS V14.00,2013-07-08 04:18:00,
2013-07-08 00:24:00,75.9,68.9,29.93,SSW,195,0.0,3.1,79,0.00,,,0.00,VWS V14.00,2013-07-08 04:24:00,
2013-07-08 00:29:00,75.9,68.9,29.90,South,173,3.1,3.1,79,0.00,,,0.00,VWS V14.00,2013-07-08 04:29:00,
2013-07-08 00:34:00,75.9,68.9,29.90,SSW,204,0.0,0.0,79,0.00,,,0.00,VWS V14.00,2013-07-08 04:34:00,
2013-07-08 00:39:00,75.9,68.9,29.90,SW,218,3.6,3.6,79,0.00,,,0.00,VWS V14.00,2013-07-08 04:39:00,
2013-07-08 00:44:00,75.9,68.9,29.90,South,187,0.0,2.7,79,0.00,,,0.00,VWS V14.00,2013-07-08 04:44:00,
2013-07-08 00:49:00,75.9,68.9,29.90,SW,217,2.7,2.7,79,0.00,,,0.00,VWS V14.00,2013-07-08 04:49:00,
2013-07-08 00:55:00,75.9,68.9,29.93,South,173,0.0,0.0,79,0.00,,,0.00,VWS V14.00,2013-07-08 04:55:00,
2013-07-08 01:00:00,75.7,68.8,29.93,South,184,0.0,0.0,79,0.00,,,0.00,VWS V14.00,2013-07-08 05:00:00,
2013-07-08 01:05:00,75.7,68.8,29.93,South,184,0.0,0.0,79,0.00,,,0.00,VWS V14.00,2013-07-08 05:05:00,
2013-07-08 01:10:00,75.7,69.1,29.93,SSW,199,0.0,3.1,80,0.00,,,0.00,VWS V14.00,2013-07-08 05:10:00,
2013-07-08 01:15:00,75.7,69.1,29.90,SSW,199,0.0,0.0,80,0.00,,,0.00,VWS V14.00,2013-07-08 05:15:00,
2013-07-08 01:21:00,75.6,69.0,29.90,SSW,195,3.1,3.1,80,0.00,,,0.00,VWS V14.00,2013-07-08 05:21:00,
2013-07-08 01:26:00,75.6,69.0,29.90,SW,214,3.1,3.1,80,0.00,,,0.00,VWS V14.00,2013-07-08 05:26:00,
2013-07-08 01:32:00,75.6,69.3,29.93,SSW,194,0.0,0.0,81,0.00,,,0.00,VWS V14.00,2013-07-08 05:32:00,
2013-07-08 01:38:00,75.6,69.3,29.93,SSE,149,0.0,0.0,81,0.00,,,0.00,VWS V14.00,2013-07-08 05:38:00,
2013-07-08 01:43:00,75.6,69.3,29.93,SSW,204,2.7,2.7,81,0.00,,,0.00,VWS V14.00,2013-07-08 05:43:00,
2013-07-08 01:48:00,75.6,69.3,29.93,SSW,202,0.0,0.0,81,0.00,,,0.00,VWS V14.00,2013-07-08 05:48:00,
2013-07-08 01:53:00,75.4,69.2,29.93,SSW,201,0.0,0.0,81,0.00,,,0.00,VWS V14.00,2013-07-08 05:53:00,
2013-07-08 01:58:00,75.4,69.2,29.93,SSW,206,3.1,3.1,81,0.00,,,0.00,VWS V14.00,2013-07-08 05:58:00,
2013-07-08 02:04:00,75.4,69.5,29.90,SSW,213,2.7,2.7,82,0.00,,,0.00,VWS V14.00,2013-07-08 06:04:00,
2013-07-08 02:10:00,75.4,69.5,29.90,SW,225,2.2,2.2,82,0.00,,,0.00,VWS V14.00,2013-07-08 06:10:00,
2013-07-08 02:15:00,75.4,69.5,29.90,SSW,194,2.2,3.6,82,0.00,,,0.00,VWS V14.00,2013-07-08 06:15:00,
2013-07-08 02:21:00,75.4,69.5,29.90,South,191,2.2,2.2,82,0.00,,,0.00,VWS V14.00,2013-07-08 06:21:00,
2013-07-08 02:27:00,75.4,69.5,29.90,SSW,202,3.6,3.6,82,0.00,,,0.00,VWS V14.00,2013-07-08 06:27:00,
2013-07-08 02:32:00,75.4,69.5,29.90,SSW,208,3.6,3.6,82,0.00,,,0.00,VWS V14.00,2013-07-08 06:32:00,
2013-07-08 02:38:00,75.4,69.9,29.90,South,186,0.0,2.2,83,0.00,,,0.00,VWS V14.00,2013-07-08 06:38:00,
2013-07-08 02:43:00,75.4,69.9,29.90,SSW,199,4.0,4.0,83,0.00,,,0.00,VWS V14.00,2013-07-08 06:43:00,
2013-07-08 02:48:00,75.4,69.9,29.90,SSW,202,2.7,3.6,83,0.00,,,0.00,VWS V14.00,2013-07-08 06:48:00,
2013-07-08 02:54:00,75.4,69.9,29.90,SSW,206,3.1,3.1,83,0.00,,,0.00,VWS V14.00,2013-07-08 06:54:00,
2013-07-08 02:59:00,75.4,69.9,29.90,SSW,211,4.0,4.0,83,0.00,,,0.00,VWS V14.00,2013-07-08 06:59:00,
2013-07-08 03:04:00,75.2,69.7,29.90,SW,214,2.7,3.1,83,0.00,,,0.00,VWS V14.00,2013-07-08 07:04:00,
2013-07-08 03:10:00,75.2,69.7,29.90,SSW,211,3.1,4.0,83,0.00,,,0.00,VWS V14.00,2013-07-08 07:10:00,
2013-07-08 03:16:00,75.2,70.0,29.90,SSW,212,0.0,0.0,84,0.00,,,0.00,VWS V14.00,2013-07-08 07:16:00,
2013-07-08 03:21:00,75.2,70.0,29.90,SW,225,0.0,0.0,84,0.00,,,0.00,VWS V14.00,2013-07-08 07:21:00,
2013-07-08 03:27:00,75.2,70.0,29.90,South,174,0.0,0.0,84,0.00,,,0.00,VWS V14.00,2013-07-08 07:27:00,
2013-07-08 03:32:00,75.0,69.9,29.90,ESE,118,0.0,0.0,84,0.00,,,0.00,VWS V14.00,2013-07-08 07:32:00,
2013-07-08 03:38:00,75.0,70.2,29.90,SSE,153,0.0,0.0,85,0.00,,,0.00,VWS V14.00,2013-07-08 07:38:00,
2013-07-08 03:43:00,75.0,70.2,29.90,SW,219,0.0,0.0,85,0.00,,,0.00,VWS V14.00,2013-07-08 07:43:00,
2013-07-08 03:48:00,75.0,70.2,29.90,SSW,208,2.2,2.2,85,0.00,,,0.00,VWS V14.00,2013-07-08 07:48:00,
2013-07-08 03:53:00,75.0,70.2,29.90,SSW,208,0.0,0.0,85,0.00,,,0.00,VWS V14.00,2013-07-08 07:53:00,
2013-07-08 03:58:00,75.0,70.2,29.90,SSW,209,0.0,0.0,85,0.00,,,0.00,VWS V14.00,2013-07-08 07:58:00,
2013-07-08 04:04:00,74.8,70.0,29.90,SSW,209,0.0,0.0,85,0.00,,,0.00,VWS V14.00,2013-07-08 08:04:00,
2013-07-08 04:09:00,74.8,70.0,29.90,SSW,208,0.0,0.0,85,0.00,,,0.00,VWS V14.00,2013-07-08 08:09:00,
2013-07-08 04:14:00,74.8,70.0,29.90,SSW,208,0.0,0.0,85,0.00,,,0.00,VWS V14.00,2013-07-08 08:14:00,
2013-07-08 04:20:00,74.7,70.2,29.90,SSW,209,0.0,0.0,86,0.00,,,0.00,VWS V14.00,2013-07-08 08:20:00,
2013-07-08 04:26:00,74.7,70.2,29.90,SSW,208,0.0,0.0,86,0.00,,,0.00,VWS V14.00,2013-07-08 08:26:00,
2013-07-08 04:32:00,74.5,70.0,29.90,SSW,208,0.0,0.0,86,0.00,,,0.00,VWS V14.00,2013-07-08 08:32:00,
2013-07-08 04:37:00,74.5,70.4,29.90,SSW,209,0.0,0.0,87,0.00,,,0.00,VWS V14.00,2013-07-08 08:37:00,
2013-07-08 04:42:00,74.3,70.2,29.90,SSW,208,0.0,0.0,87,0.00,,,0.00,VWS V14.00,2013-07-08 08:42:00,
2013-07-08 04:48:00,74.3,70.2,29.90,SSW,208,0.0,0.0,87,0.00,,,0.00,VWS V14.00,2013-07-08 08:48:00,
2013-07-08 04:54:00,74.1,70.0,29.90,SSW,208,0.0,0.0,87,0.00,,,0.00,VWS V14.00,2013-07-08 08:54:00,
2013-07-08 04:59:00,74.1,70.3,29.90,SSW,208,0.0,0.0,88,0.00,,,0.00,VWS V14.00,2013-07-08 08:59:00,
2013-07-08 05:05:00,73.9,70.2,29.90,SSW,206,0.0,0.0,88,0.00,,,0.00,VWS V14.00,2013-07-08 09:05:00,
2013-07-08 05:10:00,73.9,70.2,29.90,SSW,208,0.0,0.0,88,0.00,,,0.00,VWS V14.00,2013-07-08 09:10:00,
2013-07-08 05:16:00,73.9,70.2,29.90,SSW,207,0.0,0.0,88,0.00,,,0.00,VWS V14.00,2013-07-08 09:16:00,
2013-07-08 05:21:00,73.8,70.0,29.90,SSW,206,0.0,0.0,88,0.00,,,0.00,VWS V14.00,2013-07-08 09:21:00,
2013-07-08 05:27:00,73.8,70.0,29.90,SSW,208,0.0,0.0,88,0.00,,,0.00,VWS V14.00,2013-07-08 09:27:00,
2013-07-08 05:32:00,73.8,70.0,29.90,SSW,208,0.0,0.0,88,0.00,,,0.00,VWS V14.00,2013-07-08 09:32:00,
2013-07-08 05:37:00,73.6,69.8,29.90,SSW,207,0.0,0.0,88,0.00,,,0.00,VWS V14.00,2013-07-08 09:37:00,
2013-07-08 05:43:00,73.6,69.8,29.90,SSW,208,0.0,0.0,88,0.00,,,0.00,VWS V14.00,2013-07-08 09:43:00,
2013-07-08 05:48:00,73.4,69.6,29.90,SSW,207,0.0,0.0,88,0.00,,,0.00,VWS V14.00,2013-07-08 09:48:00,
2013-07-08 05:53:00,73.4,70.0,29.90,SSW,207,0.0,0.0,89,0.00,,,0.00,VWS V14.00,2013-07-08 09:53:00,
2013-07-08 05:59:00,73.2,69.8,29.90,SSW,207,0.0,0.0,89,0.00,,,0.00,VWS V14.00,2013-07-08 09:59:00,
2013-07-08 06:04:00,73.2,69.8,29.90,SSW,207,0.0,0.0,89,0.00,,,0.00,VWS V14.00,2013-07-08 10:04:00,
2013-07-08 06:09:00,73.0,69.6,29.90,SSW,207,0.0,0.0,89,0.00,,,0.00,VWS V14.00,2013-07-08 10:09:00,
2013-07-08 06:14:00,73.0,69.6,29.90,SSW,207,0.0,0.0,89,0.00,,,0.00,VWS V14.00,2013-07-08 10:14:00,
2013-07-08 06:19:00,73.0,69.6,29.90,SSW,207,0.0,0.0,89,0.00,,,0.00,VWS V14.00,2013-07-08 10:19:00,
2013-07-08 06:24:00,72.9,69.4,29.90,SSW,208,0.0,0.0,89,0.00,,,0.00,VWS V14.00,2013-07-08 10:24:00,
2013-07-08 06:30:00,72.9,69.4,29.90,SSE,158,0.0,0.0,89,0.00,,,0.00,VWS V14.00,2013-07-08 10:30:00,
2013-07-08 06:36:00,73.0,69.9,29.90,SSE,158,0.0,0.0,90,0.00,,,0.00,VWS V14.00,2013-07-08 10:36:00,
2013-07-08 06:42:00,73.0,69.9,29.90,SSE,159,0.0,0.0,90,0.00,,,0.00,VWS V14.00,2013-07-08 10:42:00,
2013-07-08 06:48:00,73.0,70.3,29.93,SSE,154,0.0,0.0,91,0.00,,,0.00,VWS V14.00,2013-07-08 10:48:00,
2013-07-08 06:53:00,73.2,70.4,29.93,SSE,155,0.0,0.0,91,0.00,,,0.00,VWS V14.00,2013-07-08 10:53:00,
2013-07-08 06:58:00,73.2,70.4,29.93,SSE,154,0.0,0.0,91,0.00,,,0.00,VWS V14.00,2013-07-08 10:58:00,
2013-07-08 07:04:00,73.2,70.4,29.90,SSE,154,0.0,0.0,91,0.00,,,0.00,VWS V14.00,2013-07-08 11:04:00,
2013-07-08 07:09:00,73.4,70.6,29.90,SSE,154,0.0,0.0,91,0.00,,,0.00,VWS V14.00,2013-07-08 11:09:00,
2013-07-08 07:15:00,73.6,70.8,29.90,SSE,148,0.0,2.7,91,0.00,,,0.00,VWS V14.00,2013-07-08 11:15:00,
2013-07-08 07:21:00,73.6,70.8,29.90,SSE,162,0.0,0.0,91,0.00,,,0.00,VWS V14.00,2013-07-08 11:21:00,
2013-07-08 07:26:00,73.8,71.0,29.90,ESE,105,3.6,3.6,91,0.00,,,0.00,VWS V14.00,2013-07-08 11:26:00,
2013-07-08 07:31:00,73.9,71.2,29.90,South,190,2.7,2.7,91,0.00,,,0.00,VWS V14.00,2013-07-08 11:31:00,
2013-07-08 07:36:00,73.9,71.2,29.90,SSW,206,2.7,2.7,91,0.00,,,0.00,VWS V14.00,2013-07-08 11:36:00,
2013-07-08 07:41:00,74.1,71.3,29.90,SSW,200,2.2,2.2,91,0.00,,,0.00,VWS V14.00,2013-07-08 11:41:00,
2013-07-08 07:46:00,74.3,71.5,29.90,SSE,160,0.0,0.0,91,0.00,,,0.00,VWS V14.00,2013-07-08 11:46:00,
2013-07-08 07:52:00,74.3,71.5,29.90,SE,136,2.7,2.7,91,0.00,,,0.00,VWS V14.00,2013-07-08 11:52:00,
2013-07-08 07:57:00,74.5,71.7,29.90,South,173,2.2,2.2,91,0.00,,,0.00,VWS V14.00,2013-07-08 11:57:00,
2013-07-08 08:03:00,74.7,71.5,29.90,SE,146,0.0,2.2,90,0.00,,,0.00,VWS V14.00,2013-07-08 12:03:00,
2013-07-08 08:08:00,74.7,71.5,29.90,SSE,167,0.0,0.0,90,0.00,,,0.00,VWS V14.00,2013-07-08 12:08:00,
2013-07-08 08:14:00,75.0,71.9,29.90,SSE,167,0.0,0.0,90,0.00,,,0.00,VWS V14.00,2013-07-08 12:14:00,
2013-07-08 08:20:00,75.2,72.1,29.90,South,182,0.0,2.7,90,0.00,,,0.00,VWS V14.00,2013-07-08 12:20:00,
2013-07-08 08:25:00,75.4,72.2,29.90,SE,138,0.0,0.0,90,0.00,,,0.00,VWS V14.00,2013-07-08 12:25:00,
2013-07-08 08:30:00,75.6,72.1,29.90,SE,133,4.0,4.0,89,0.00,,,0.00,VWS V14.00,2013-07-08 12:30:00,
2013-07-08 08:35:00,75.7,71.9,29.90,South,189,0.0,3.6,88,0.00,,,0.00,VWS V14.00,2013-07-08 12:35:00,
2013-07-08 08:41:00,75.9,71.8,29.90,SW,219,2.2,3.6,87,0.00,,,0.00,VWS V14.00,2013-07-08 12:41:00,
2013-07-08 08:46:00,75.9,71.8,29.90,SSW,194,0.0,0.0,87,0.00,,,0.00,VWS V14.00,2013-07-08 12:46:00,
2013-07-08 08:52:00,76.1,71.6,29.90,SSW,208,2.7,3.1,86,0.00,,,0.00,VWS V14.00,2013-07-08 12:52:00,
2013-07-08 08:57:00,76.1,71.6,29.90,SSW,205,3.6,3.6,86,0.00,,,0.00,VWS V14.00,2013-07-08 12:57:00,
2013-07-08 09:03:00,76.3,71.4,29.90,SSW,195,4.9,4.9,85,0.00,,,0.00,VWS V14.00,2013-07-08 13:03:00,
2013-07-08 09:08:00,76.3,71.4,29.90,South,181,3.6,4.0,85,0.00,,,0.00,VWS V14.00,2013-07-08 13:08:00,
2013-07-08 09:12:00,76.3,71.1,29.90,SSW,211,5.4,5.4,84,0.00,,,0.00,VWS V14.00,2013-07-08 13:12:00,
2013-07-08 09:18:00,76.5,71.3,29.90,SW,214,2.7,4.0,84,0.00,,,0.00,VWS V14.00,2013-07-08 13:18:00,
2013-07-08 09:24:00,76.6,71.4,29.90,SSW,208,4.0,4.0,84,0.00,,,0.00,VWS V14.00,2013-07-08 13:24:00,
2013-07-08 09:29:00,76.8,71.3,29.93,SSW,197,2.7,2.7,83,0.00,,,0.00,VWS V14.00,2013-07-08 13:29:00,
2013-07-08 09:35:00,76.8,71.3,29.93,SSW,206,5.8,5.8,83,0.00,,,0.00,VWS V14.00,2013-07-08 13:35:00,
2013-07-08 09:40:00,77.0,71.1,29.93,SW,219,5.4,5.4,82,0.00,,,0.00,VWS V14.00,2013-07-08 13:40:00,
2013-07-08 09:46:00,77.2,71.3,29.93,WSW,243,5.4,5.4,82,0.00,,,0.00,VWS V14.00,2013-07-08 13:46:00,
2013-07-08 09:51:00,77.4,71.1,29.90,SSW,200,6.3,6.3,81,0.00,,,0.00,VWS V14.00,2013-07-08 13:51:00,
2013-07-08 09:56:00,77.4,71.1,29.90,South,190,3.6,5.8,81,0.00,,,0.00,VWS V14.00,2013-07-08 13:56:00,
2013-07-08 10:01:00,77.7,71.1,29.93,South,181,4.0,4.0,80,0.00,,,0.00,VWS V14.00,2013-07-08 14:01:00,
2013-07-08 10:06:00,77.7,71.1,29.93,South,183,5.8,5.8,80,0.00,,,0.00,VWS V14.00,2013-07-08 14:06:00,
2013-07-08 10:11:00,78.1,71.0,29.93,SW,214,3.1,3.1,79,0.00,,,0.00,VWS V14.00,2013-07-08 14:11:00,
2013-07-08 10:17:00,78.3,71.2,29.93,South,190,3.6,7.2,79,0.00,,,0.00,VWS V14.00,2013-07-08 14:17:00,
2013-07-08 10:23:00,78.4,71.4,29.93,SSW,202,3.1,3.1,79,0.00,,,0.00,VWS V14.00,2013-07-08 14:23:00,
2013-07-08 10:28:00,78.6,71.2,29.93,SSW,213,7.6,7.6,78,0.00,,,0.00,VWS V14.00,2013-07-08 14:28:00,
2013-07-08 10:34:00,78.8,70.6,29.93,SSW,203,5.8,6.3,76,0.00,,,0.00,VWS V14.00,2013-07-08 14:34:00,
2013-07-08 10:39:00,78.8,69.4,29.93,West,265,4.0,5.4,73,0.00,,,0.00,VWS V14.00,2013-07-08 14:39:00,
2013-07-08 10:44:00,78.8,69.4,29.93,SW,224,4.0,6.3,73,0.00,,,0.00,VWS V14.00,2013-07-08 14:44:00,
2013-07-08 10:49:00,78.6,68.8,29.96,WSW,243,6.3,8.3,72,0.00,,,0.00,VWS V14.00,2013-07-08 14:49:00,
2013-07-08 10:55:00,78.3,68.5,29.96,SSW,211,4.0,6.3,72,0.00,,,0.00,VWS V14.00,2013-07-08 14:55:00,
2013-07-08 11:00:00,78.3,68.5,29.96,West,280,6.3,6.3,72,0.00,,,0.00,VWS V14.00,2013-07-08 15:00:00,
2013-07-08 11:05:00,77.7,68.4,29.96,WNW,299,3.6,3.6,73,0.00,,,0.00,VWS V14.00,2013-07-08 15:05:00,
2013-07-08 11:10:00,77.5,68.6,29.96,WNW,289,8.7,8.7,74,0.00,,,0.00,VWS V14.00,2013-07-08 15:10:00,
2013-07-08 11:16:00,77.4,68.8,29.96,WSW,246,3.1,5.4,75,0.00,,,0.00,VWS V14.00,2013-07-08 15:16:00,
2013-07-08 11:21:00,77.2,68.7,29.96,South,189,4.5,8.1,75,0.00,,,0.00,VWS V14.00,2013-07-08 15:21:00,
2013-07-08 11:26:00,77.0,68.9,29.96,South,190,2.7,3.6,76,0.00,,,0.00,VWS V14.00,2013-07-08 15:26:00,
2013-07-08 11:31:00,76.8,69.4,29.96,South,189,2.7,2.7,78,0.00,,,0.00,VWS V14.00,2013-07-08 15:31:00,
2013-07-08 11:37:00,76.3,69.3,29.96,SW,219,6.3,6.3,79,0.00,,,0.00,VWS V14.00,2013-07-08 15:37:00,
2013-07-08 11:43:00,76.1,69.1,29.96,SSW,210,0.0,2.7,79,0.00,,,0.00,VWS V14.00,2013-07-08 15:43:00,
2013-07-08 11:48:00,75.7,69.5,29.96,SSW,210,0.0,0.0,81,0.00,,,0.00,VWS V14.00,2013-07-08 15:48:00,
2013-07-08 11:54:00,75.7,69.9,29.96,SSW,205,2.7,3.6,82,0.00,,,0.00,VWS V14.00,2013-07-08 15:54:00,
2013-07-08 11:59:00,75.6,70.0,29.96,SW,222,2.7,3.1,83,0.00,,,0.00,VWS V14.00,2013-07-08 15:59:00,
2013-07-08 12:05:00,75.6,70.4,29.96,WSW,237,0.0,4.0,84,0.00,,,0.00,VWS V14.00,2013-07-08 16:05:00,
2013-07-08 12:11:00,75.6,70.7,29.96,SW,232,3.6,4.0,85,0.00,,,0.00,VWS V14.00,2013-07-08 16:11:00,
2013-07-08 12:16:00,75.4,70.6,29.93,SW,220,2.7,3.6,85,0.00,,,0.00,VWS V14.00,2013-07-08 16:16:00,
2013-07-08 12:22:00,75.4,70.9,29.93,SW,236,3.6,4.0,86,0.00,,,0.00,VWS V14.00,2013-07-08 16:22:00,
2013-07-08 12:27:00,75.2,71.1,29.93,SW,215,4.0,5.4,87,0.00,,,0.00,VWS V14.00,2013-07-08 16:27:00,
2013-07-08 12:33:00,75.0,70.9,29.93,SSW,213,4.0,4.9,87,0.00,,,0.00,VWS V14.00,2013-07-08 16:33:00,
2013-07-08 12:39:00,75.2,71.1,29.93,SSW,197,4.0,4.0,87,0.00,,,0.00,VWS V14.00,2013-07-08 16:39:00,
2013-07-08 12:44:00,75.2,71.1,29.93,SSW,199,3.6,3.6,87,0.00,,,0.00,VWS V14.00,2013-07-08 16:44:00,
2013-07-08 12:50:00,75.6,71.8,29.93,SSE,147,3.6,4.0,88,0.00,,,0.00,VWS V14.00,2013-07-08 16:50:00,
2013-07-08 12:56:00,75.7,71.9,29.93,SSW,201,2.7,3.6,88,0.00,,,0.00,VWS V14.00,2013-07-08 16:56:00,
2013-07-08 13:02:00,76.1,72.3,29.90,SSW,208,7.6,7.6,88,0.00,,,0.00,VWS V14.00,2013-07-08 17:02:00,
2013-07-08 13:07:00,76.5,72.3,29.90,SW,224,6.3,6.3,87,0.00,,,0.00,VWS V14.00,2013-07-08 17:07:00,
2013-07-08 13:13:00,76.8,72.3,29.90,SW,216,3.6,3.6,86,0.00,,,0.00,VWS V14.00,2013-07-08 17:13:00,
2013-07-08 13:18:00,77.4,72.5,29.90,South,172,5.8,5.8,85,0.00,,,0.00,VWS V14.00,2013-07-08 17:18:00,
2013-07-08 13:24:00,77.5,72.0,29.90,SSW,201,5.8,5.8,83,0.00,,,0.00,VWS V14.00,2013-07-08 17:24:00,
2013-07-08 13:29:00,77.5,70.9,29.90,SSW,211,8.1,8.1,80,0.00,,,0.00,VWS V14.00,2013-07-08 17:29:00,
2013-07-08 13:36:00,77.4,70.3,29.93,SW,224,4.0,4.0,79,0.00,,,0.00,VWS V14.00,2013-07-08 17:36:00,
2013-07-08 13:44:00,77.2,70.2,29.93,SSW,195,8.3,8.3,79,0.00,,,0.00,VWS V14.00,2013-07-08 17:44:00,
2013-07-08 13:49:00,77.0,69.6,29.93,SW,222,3.1,3.1,78,0.00,,,0.00,VWS V14.00,2013-07-08 17:49:00,
2013-07-08 13:55:00,76.8,69.4,29.93,SW,231,5.4,5.4,78,0.00,,,0.00,VWS V14.00,2013-07-08 17:55:00,
2013-07-08 14:01:00,76.5,69.1,29.93,SW,216,2.7,6.3,78,0.00,,,0.00,VWS V14.00,2013-07-08 18:01:00,
2013-07-08 14:07:00,76.5,69.5,29.93,WSW,237,4.9,5.8,79,0.00,,,0.00,VWS V14.00,2013-07-08 18:07:00,
2013-07-08 14:12:00,76.5,69.5,29.93,SW,215,4.0,5.8,79,0.00,,,0.00,VWS V14.00,2013-07-08 18:12:00,
2013-07-08 14:18:00,76.6,69.3,29.93,SSW,194,8.3,8.7,78,0.00,,,0.00,VWS V14.00,2013-07-08 18:18:00,
2013-07-08 14:24:00,76.6,69.3,29.93,SW,233,4.9,5.8,78,0.00,,,0.00,VWS V14.00,2013-07-08 18:24:00,
2013-07-08 14:29:00,76.8,69.1,29.93,WSW,254,6.3,6.3,77,0.00,,,0.00,VWS V14.00,2013-07-08 18:29:00,
2013-07-08 14:34:00,76.6,68.5,29.93,SW,230,10.1,10.1,76,0.00,,,0.00,VWS V14.00,2013-07-08 18:34:00,
2013-07-08 14:42:00,76.5,68.3,29.93,SW,236,7.6,7.6,76,0.00,,,0.00,VWS V14.00,2013-07-08 18:42:00,
2013-07-08 14:47:00,76.5,68.7,29.93,SW,219,5.8,5.8,77,0.00,,,0.00,VWS V14.00,2013-07-08 18:47:00,
2013-07-08 14:52:00,76.3,67.8,29.93,SW,225,12.8,12.8,75,0.00,,,0.00,VWS V14.00,2013-07-08 18:52:00,
2013-07-08 14:57:00,76.1,67.2,29.93,SW,219,8.3,10.1,74,0.00,,,0.00,VWS V14.00,2013-07-08 18:57:00,
2013-07-08 15:02:00,75.9,67.0,29.93,SSW,194,7.2,7.2,74,0.00,,,0.00,VWS V14.00,2013-07-08 19:02:00,
2013-07-08 15:07:00,75.7,67.3,29.90,SW,229,5.4,5.4,75,0.00,,,0.00,VWS V14.00,2013-07-08 19:07:00,
2013-07-08 15:12:00,75.6,67.1,29.90,SSW,213,5.8,5.8,75,0.00,,,0.00,VWS V14.00,2013-07-08 19:12:00,
2013-07-08 15:17:00,75.6,67.1,29.90,SW,226,6.3,6.7,75,0.00,,,0.00,VWS V14.00,2013-07-08 19:17:00,
2013-07-08 15:23:00,75.4,66.9,29.90,SSW,211,7.6,10.1,75,0.00,,,0.00,VWS V14.00,2013-07-08 19:23:00,
2013-07-08 15:28:00,75.2,67.1,29.90,SW,218,6.3,7.6,76,0.00,,,0.00,VWS V14.00,2013-07-08 19:28:00,
2013-07-08 15:34:00,75.2,67.1,29.90,SW,215,4.0,6.3,76,0.00,,,0.00,VWS V14.00,2013-07-08 19:34:00,
2013-07-08 15:40:00,75.2,67.5,29.90,SSW,208,4.0,4.0,77,0.00,,,0.00,VWS V14.00,2013-07-08 19:40:00,
2013-07-08 15:45:00,75.2,67.5,29.90,SW,233,5.8,7.6,77,0.00,,,0.00,VWS V14.00,2013-07-08 19:45:00,
2013-07-08 15:51:00,75.2,67.5,29.90,SSW,208,8.1,8.1,77,0.00,,,0.00,VWS V14.00,2013-07-08 19:51:00,
2013-07-08 15:57:00,75.2,67.5,29.90,SW,225,8.7,8.7,77,0.00,,,0.00,VWS V14.00,2013-07-08 19:57:00,
2013-07-08 16:03:00,75.4,67.3,29.87,SW,224,4.9,6.3,76,0.00,,,0.00,VWS V14.00,2013-07-08 20:03:00,
2013-07-08 16:08:00,75.6,67.5,29.87,SW,229,8.1,8.1,76,0.00,,,0.00,VWS V14.00,2013-07-08 20:08:00,
2013-07-08 16:14:00,75.7,67.3,29.87,SW,222,7.6,7.6,75,0.00,,,0.00,VWS V14.00,2013-07-08 20:14:00,
2013-07-08 16:19:00,76.1,67.2,29.87,SSW,213,8.1,8.1,74,0.00,,,0.00,VWS V14.00,2013-07-08 20:19:00,
2013-07-08 16:25:00,76.6,67.3,29.90,SW,225,5.4,5.4,73,0.00,,,0.00,VWS V14.00,2013-07-08 20:25:00,
2013-07-08 16:31:00,77.0,67.3,29.90,SSW,194,7.6,8.3,72,0.00,,,0.00,VWS V14.00,2013-07-08 20:31:00,
2013-07-08 16:36:00,77.2,66.7,29.90,SW,219,8.7,8.7,70,0.00,,,0.00,VWS V14.00,2013-07-08 20:36:00,
2013-07-08 16:42:00,77.2,66.2,29.90,SSW,211,5.4,5.4,69,0.00,,,0.00,VWS V14.00,2013-07-08 20:42:00,
2013-07-08 16:47:00,77.0,66.1,29.90,SSW,211,7.6,7.6,69,0.00,,,0.00,VWS V14.00,2013-07-08 20:47:00,
2013-07-08 16:52:00,77.0,66.1,29.90,SSW,204,8.1,8.1,69,0.00,,,0.00,VWS V14.00,2013-07-08 20:52:00,
2013-07-08 17:00:00,77.2,66.2,29.90,SW,214,7.6,8.7,69,0.00,,,0.00,VWS V14.00,2013-07-08 21:00:00,
2013-07-08 17:07:00,77.0,66.5,29.90,WSW,237,4.9,5.4,70,0.00,,,0.00,VWS V14.00,2013-07-08 21:07:00,
2013-07-08 17:12:00,76.8,66.7,29.90,SW,223,8.3,8.3,71,0.00,,,0.00,VWS V14.00,2013-07-08 21:12:00,
2013-07-08 17:17:00,76.8,66.7,29.90,SW,236,5.4,7.2,71,0.00,,,0.00,VWS V14.00,2013-07-08 21:17:00,
2013-07-08 17:23:00,76.8,67.1,29.90,SW,228,4.9,8.1,72,0.00,,,0.00,VWS V14.00,2013-07-08 21:23:00,
2013-07-08 17:29:00,76.6,66.9,29.90,WSW,249,8.7,8.7,72,0.00,,,0.00,VWS V14.00,2013-07-08 21:29:00,
2013-07-08 17:35:00,76.6,67.3,29.90,SW,220,5.4,5.4,73,0.00,,,0.00,VWS V14.00,2013-07-08 21:35:00,
2013-07-08 17:41:00,76.6,67.3,29.90,SW,229,4.9,5.8,73,0.00,,,0.00,VWS V14.00,2013-07-08 21:41:00,
2013-07-08 17:48:00,76.8,67.9,29.90,SSW,208,5.8,10.1,74,0.00,,,0.00,VWS V14.00,2013-07-08 21:48:00,
2013-07-08 17:54:00,77.2,68.3,29.90,WSW,243,2.7,2.7,74,0.00,,,0.00,VWS V14.00,2013-07-08 21:54:00,
2013-07-08 17:59:00,77.5,68.2,29.90,SSW,211,3.6,4.0,73,0.00,,,0.00,VWS V14.00,2013-07-08 21:59:00,
2013-07-08 18:05:00,77.9,68.9,29.90,West,261,4.0,6.3,74,0.00,,,0.00,VWS V14.00,2013-07-08 22:05:00,
2013-07-08 18:11:00,77.9,68.6,29.90,SSW,208,3.6,10.1,73,0.00,,,0.00,VWS V14.00,2013-07-08 22:11:00,
2013-07-08 18:16:00,78.1,68.7,29.87,West,260,4.0,4.0,73,0.00,,,0.00,VWS V14.00,2013-07-08 22:16:00,
2013-07-08 18:22:00,78.3,68.9,29.87,SW,222,3.1,3.1,73,0.00,,,0.00,VWS V14.00,2013-07-08 22:22:00,
2013-07-08 18:27:00,78.8,69.0,29.87,SW,223,5.4,5.8,72,0.00,,,0.00,VWS V14.00,2013-07-08 22:27:00,
2013-07-08 18:35:00,79.3,69.1,29.87,SSW,211,4.0,4.0,71,0.00,,,0.00,VWS V14.00,2013-07-08 22:35:00,
2013-07-08 18:41:00,79.2,68.1,29.87,SSW,205,3.6,3.6,69,0.00,,,0.00,VWS V14.00,2013-07-08 22:41:00,
2013-07-08 18:47:00,78.8,67.8,29.87,WSW,252,4.0,5.4,69,0.00,,,0.00,VWS V14.00,2013-07-08 22:47:00,
2013-07-08 18:52:00,78.6,68.0,29.87,SSW,197,4.9,4.9,70,0.00,,,0.00,VWS V14.00,2013-07-08 22:52:00,
2013-07-08 18:58:00,78.3,68.1,29.87,WNW,301,3.6,3.6,71,0.00,,,0.00,VWS V14.00,2013-07-08 22:58:00,
2013-07-08 19:04:00,78.1,67.9,29.90,West,275,3.1,3.6,71,0.00,,,0.00,VWS V14.00,2013-07-08 23:04:00,
2013-07-08 19:10:00,78.1,67.9,29.90,SW,214,4.0,4.9,71,0.00,,,0.00,VWS V14.00,2013-07-08 23:10:00,
2013-07-08 19:16:00,77.9,68.2,29.90,SW,217,5.4,5.4,72,0.00,,,0.00,VWS V14.00,2013-07-08 23:16:00,
2013-07-08 19:23:00,77.5,68.2,29.90,SW,214,0.0,0.0,73,0.00,,,0.00,VWS V14.00,2013-07-08 23:23:00,
2013-07-08 19:30:00,77.5,68.6,29.90,SW,224,3.1,3.1,74,0.00,,,0.00,VWS V14.00,2013-07-08 23:30:00,
2013-07-08 19:36:00,77.5,68.6,29.90,SW,225,3.1,3.1,74,0.00,,,0.00,VWS V14.00,2013-07-08 23:36:00,
2013-07-08 19:42:00,77.5,69.0,29.90,SW,225,2.7,2.7,75,0.00,,,0.00,VWS V14.00,2013-07-08 23:42:00,
2013-07-08 19:47:00,77.5,69.0,29.90,SW,222,0.0,0.0,75,0.00,,,0.00,VWS V14.00,2013-07-08 23:47:00,
2013-07-08 19:55:00,77.4,68.8,29.90,SW,226,3.1,3.6,75,0.00,,,0.00,VWS V14.00,2013-07-08 23:55:00,
2013-07-08 20:02:00,77.4,68.8,29.90,SW,226,0.0,3.1,75,0.00,,,0.00,VWS V14.00,2013-07-09 00:02:00,
2013-07-08 20:07:00,77.4,68.8,29.90,SW,227,0.0,0.0,75,0.00,,,0.00,VWS V14.00,2013-07-09 00:07:00,
2013-07-08 20:12:00,77.4,68.8,29.90,SW,225,0.0,0.0,75,0.00,,,0.00,VWS V14.00,2013-07-09 00:12:00,
2013-07-08 20:18:00,77.5,69.4,29.90,SW,225,0.0,0.0,76,0.00,,,0.00,VWS V14.00,2013-07-09 00:18:00,
2013-07-08 20:23:00,77.5,69.4,29.90,SW,226,0.0,0.0,76,0.00,,,0.00,VWS V14.00,2013-07-09 00:23:00,
2013-07-08 20:29:00,77.7,69.6,29.90,SW,226,0.0,0.0,76,0.00,,,0.00,VWS V14.00,2013-07-09 00:29:00,
2013-07-08 20:36:00,77.5,69.0,29.90,SW,226,0.0,0.0,75,0.00,,,0.00,VWS V14.00,2013-07-09 00:36:00,
2013-07-08 20:41:00,77.5,69.0,29.90,SW,227,0.0,0.0,75,0.00,,,0.00,VWS V14.00,2013-07-09 00:41:00,
2013-07-08 20:47:00,77.5,69.0,29.90,SW,226,0.0,0.0,75,0.00,,,0.00,VWS V14.00,2013-07-09 00:47:00,
2013-07-08 20:53:00,77.4,68.8,29.90,SW,226,0.0,0.0,75,0.00,,,0.00,VWS V14.00,2013-07-09 00:53:00,
2013-07-08 20:59:00,77.4,68.8,29.90,SW,226,0.0,0.0,75,0.00,,,0.00,VWS V14.00,2013-07-09 00:59:00,
2013-07-08 21:05:00,77.2,69.0,29.90,SW,226,0.0,0.0,76,0.00,,,0.00,VWS V14.00,2013-07-09 01:05:00,
2013-07-08 21:11:00,77.0,68.9,29.90,SW,227,0.0,0.0,76,0.00,,,0.00,VWS V14.00,2013-07-09 01:11:00,
2013-07-08 21:18:00,76.8,69.1,29.90,SW,226,0.0,0.0,77,0.00,,,0.00,VWS V14.00,2013-07-09 01:18:00,
2013-07-08 21:25:00,76.6,69.3,29.90,SW,226,0.0,0.0,78,0.00,,,0.00,VWS V14.00,2013-07-09 01:25:00,
2013-07-08 21:31:00,76.5,69.1,29.90,SW,227,0.0,0.0,78,0.00,,,0.00,VWS V14.00,2013-07-09 01:31:00,
2013-07-08 21:36:00,76.1,69.1,29.90,SW,227,0.0,0.0,79,0.00,,,0.00,VWS V14.00,2013-07-09 01:36:00,
2013-07-08 21:42:00,75.9,68.9,29.90,SW,226,0.0,0.0,79,0.00,,,0.00,VWS V14.00,2013-07-09 01:42:00,
2013-07-08 21:48:00,75.7,68.8,29.90,SW,225,0.0,0.0,79,0.00,,,0.00,VWS V14.00,2013-07-09 01:48:00,
2013-07-08 21:54:00,75.6,69.0,29.90,SW,226,0.0,0.0,80,0.00,,,0.00,VWS V14.00,2013-07-09 01:54:00,
2013-07-08 22:00:00,75.2,68.6,29.90,SW,226,0.0,0.0,80,0.00,,,0.00,VWS V14.00,2013-07-09 02:00:00,
2013-07-08 22:06:00,75.0,68.8,29.90,SW,225,0.0,0.0,81,0.00,,,0.00,VWS V14.00,2013-07-09 02:06:00,
2013-07-08 22:14:00,74.8,69.0,29.90,SW,227,0.0,0.0,82,0.00,,,0.00,VWS V14.00,2013-07-09 02:14:00,
2013-07-08 22:23:00,74.5,69.0,29.90,SW,226,0.0,0.0,83,0.00,,,0.00,VWS V14.00,2013-07-09 02:23:00,
2013-07-08 22:28:00,74.3,68.8,29.90,SW,225,0.0,0.0,83,0.00,,,0.00,VWS V14.00,2013-07-09 02:28:00,
2013-07-08 22:34:00,74.3,68.8,29.90,SW,226,0.0,0.0,83,0.00,,,0.00,VWS V14.00,2013-07-09 02:34:00,
2013-07-08 22:39:00,74.1,68.6,29.90,SW,226,0.0,0.0,83,0.00,,,0.00,VWS V14.00,2013-07-09 02:39:00,
2013-07-08 22:46:00,73.9,68.5,29.90,SW,226,0.0,0.0,83,0.00,,,0.00,VWS V14.00,2013-07-09 02:46:00,
2013-07-08 22:51:00,73.8,68.6,29.90,SW,226,0.0,0.0,84,0.00,,,0.00,VWS V14.00,2013-07-09 02:51:00,
2013-07-08 22:57:00,73.4,68.3,29.90,SW,226,0.0,0.0,84,0.00,,,0.00,VWS V14.00,2013-07-09 02:57:00,
2013-07-08 23:04:00,73.4,68.6,29.90,SW,227,0.0,0.0,85,0.00,,,0.00,VWS V14.00,2013-07-09 03:04:00,
2013-07-08 23:10:00,73.2,68.4,29.90,SW,225,0.0,0.0,85,0.00,,,0.00,VWS V14.00,2013-07-09 03:10:00,
2013-07-08 23:16:00,73.2,68.4,29.90,SW,225,0.0,0.0,85,0.00,,,0.00,VWS V14.00,2013-07-09 03:16:00,
2013-07-08 23:23:00,72.7,68.3,29.90,SW,227,0.0,0.0,86,0.00,,,0.00,VWS V14.00,2013-07-09 03:23:00,
2013-07-08 23:30:00,72.5,68.4,29.90,SW,226,0.0,0.0,87,0.00,,,0.00,VWS V14.00,2013-07-09 03:30:00,
2013-07-08 23:36:00,72.3,68.6,29.90,SW,226,0.0,0.0,88,0.00,,,0.00,VWS V14.00,2013-07-09 03:36:00,
2013-07-08 23:42:00,72.3,68.6,29.90,SW,225,0.0,0.0,88,0.00,,,0.00,VWS V14.00,2013-07-09 03:42:00,
2013-07-08 23:50:00,72.1,68.4,29.90,SW,227,0.0,0.0,88,0.00,,,0.00,VWS V14.00,2013-07-09 03:50:00,
2013-07-08 23:56:00,72.0,68.2,29.90,SW,227,0.0,0.0,88,0.00,,,0.00,VWS V14.00,2013-07-09 03:56:00,